GFSNIL_prec_pwat_021.txt.gz
Precipitable_Water
1.24 1.29 1.30 1.27 1.30 1.21 1.17 1.18 1.28 1.32 1.35 1.34 1.27 1.33 1.37 1.34 1.31 1.31 1.29 1.26 1.31 1.24
1.25 1.27 1.32 1.27 1.33 1.27 1.25 1.28 1.43 1.49 1.47 1.47 1.30 1.25 1.38 1.34 1.30 1.39 1.45 1.34 1.29 1.30
1.16 1.27 1.31 1.33 1.25 1.38 1.38 1.42 1.43 1.46 1.52 1.49 1.43 1.22 1.34 1.34 1.31 1.36 1.48 1.43 1.34 1.31
1.19 1.25 1.28 1.27 1.31 1.39 1.47 1.39 1.41 1.48 1.48 1.46 1.44 1.34 1.29 1.30 1.25 1.30 1.38 1.45 1.38 1.34
1.25 1.25 1.23 1.22 1.32 1.40 1.43 1.49 1.41 1.41 1.45 1.44 1.43 1.42 1.30 1.26 1.22 1.21 1.35 1.34 1.38 1.31
1.17 1.20 1.17 1.19 1.25 1.37 1.38 1.39 1.44 1.46 1.42 1.42 1.41 1.37 1.35 1.29 1.26 1.22 1.34 1.32 1.34 1.26
1.12 1.15 1.15 1.22 1.22 1.30 1.42 1.41 1.43 1.43 1.41 1.40 1.40 1.41 1.41 1.38 1.30 1.21 1.36 1.35 1.42 1.36
1.15 1.23 1.26 1.28 1.30 1.26 1.35 1.43 1.46 1.44 1.44 1.45 1.44 1.44 1.44 1.43 1.37 1.22 1.23 1.32 1.40 1.39
1.20 1.28 1.28 1.30 1.31 1.38 1.36 1.43 1.48 1.48 1.50 1.49 1.49 1.49 1.58 1.58 1.53 1.37 1.24 1.25 1.36 1.40
1.15 1.22 1.30 1.35 1.37 1.40 1.45 1.54 1.53 1.56 1.59 1.60 1.64 1.70 1.75 1.74 1.70 1.52 1.30 1.26 1.32 1.39
1.14 1.15 1.32 1.41 1.41 1.45 1.55 1.58 1.68 1.79 1.84 1.75 1.77 1.84 1.77 1.72 1.70 1.56 1.35 1.31 1.40 1.43
1.30 1.18 1.26 1.37 1.47 1.57 1.65 1.74 1.85 1.90 1.77 1.76 1.76 1.79 1.73 1.73 1.60 1.49 1.37 1.36 1.43 1.44
1.35 1.31 1.26 1.39 1.54 1.64 1.75 1.84 1.93 1.80 1.80 1.80 1.73 1.73 1.74 1.67 1.51 1.35 1.27 1.37 1.37 1.41
1.44 1.40 1.43 1.54 1.68 1.75 1.85 1.95 1.78 1.72 1.76 1.75 1.69 1.71 1.70 1.62 1.46 1.35 1.29 1.32 1.35 1.43

GFSNIL_prec_pwat_024.txt.gz
Precipitable_Water
1.27 1.11 1.11 1.26 1.29 1.13 1.09 1.16 1.39 1.46 1.46 1.41 1.43 1.37 1.27 1.27 1.24 1.23 1.24 1.30 1.35 1.30
1.30 1.17 1.11 1.34 1.25 1.22 1.19 1.27 1.43 1.45 1.36 1.36 1.39 1.30 1.21 1.24 1.21 1.22 1.18 1.16 1.28 1.29
1.24 1.21 1.18 1.35 1.20 1.20 1.23 1.40 1.41 1.36 1.38 1.43 1.42 1.39 1.24 1.18 1.24 1.17 1.20 1.27 1.23 1.20
1.23 1.21 1.18 1.19 1.22 1.26 1.35 1.37 1.35 1.40 1.37 1.42 1.48 1.47 1.39 1.23 1.21 1.19 1.15 1.34 1.31 1.23
1.23 1.22 1.16 1.13 1.18 1.34 1.37 1.41 1.36 1.39 1.39 1.42 1.46 1.49 1.41 1.34 1.25 1.19 1.11 1.20 1.30 1.28
1.18 1.16 1.14 1.09 1.19 1.26 1.37 1.40 1.45 1.44 1.39 1.40 1.44 1.45 1.43 1.39 1.30 1.25 1.20 1.16 1.26 1.26
1.18 1.07 1.10 1.16 1.19 1.23 1.30 1.36 1.40 1.45 1.46 1.46 1.45 1.45 1.44 1.40 1.33 1.34 1.35 1.23 1.28 1.30
1.18 1.11 1.11 1.16 1.19 1.23 1.26 1.30 1.36 1.42 1.47 1.49 1.47 1.46 1.41 1.40 1.38 1.43 1.47 1.42 1.29 1.31
1.18 1.15 1.11 1.15 1.20 1.21 1.19 1.27 1.30 1.33 1.36 1.39 1.44 1.46 1.45 1.46 1.48 1.57 1.62 1.55 1.34 1.28
1.20 1.09 1.12 1.17 1.22 1.20 1.18 1.23 1.27 1.33 1.37 1.39 1.44 1.47 1.57 1.65 1.65 1.66 1.67 1.60 1.39 1.20
1.37 1.12 1.12 1.17 1.18 1.23 1.30 1.30 1.33 1.36 1.40 1.43 1.56 1.76 1.80 1.79 1.74 1.68 1.73 1.66 1.50 1.32
1.45 1.38 1.17 1.08 1.16 1.29 1.38 1.42 1.42 1.47 1.54 1.69 1.82 1.87 1.80 1.78 1.67 1.68 1.68 1.62 1.57 1.41
1.41 1.49 1.43 1.26 1.18 1.30 1.42 1.48 1.59 1.67 1.82 1.88 1.88 1.85 1.84 1.78 1.70 1.69 1.56 1.51 1.47 1.42
1.33 1.46 1.54 1.59 1.53 1.39 1.41 1.56 1.67 1.75 1.87 2.01 1.91 1.83 1.80 1.76 1.75 1.62 1.46 1.38 1.32 1.34

GFSNIL_prec_pwat_030.txt.gz
Precipitable_Water
1.25 1.23 1.24 1.28 1.28 1.19 1.12 1.18 1.28 1.33 1.46 1.51 1.55 1.46 1.43 1.37 1.28 1.24 1.19 1.17 1.22 1.21
1.30 1.26 1.22 1.25 1.29 1.22 1.21 1.20 1.27 1.34 1.42 1.48 1.54 1.51 1.42 1.34 1.24 1.21 1.19 1.18 1.18 1.18
1.36 1.36 1.29 1.30 1.27 1.21 1.20 1.25 1.17 1.33 1.39 1.49 1.53 1.54 1.45 1.36 1.33 1.24 1.20 1.19 1.16 1.19
1.36 1.40 1.38 1.26 1.28 1.28 1.24 1.22 1.13 1.31 1.37 1.44 1.50 1.52 1.43 1.39 1.34 1.23 1.15 1.18 1.09 1.13
1.36 1.40 1.36 1.24 1.25 1.31 1.28 1.18 1.14 1.24 1.35 1.41 1.49 1.48 1.39 1.32 1.36 1.33 1.18 1.15 1.14 1.09
1.30 1.36 1.35 1.28 1.23 1.27 1.30 1.17 1.11 1.23 1.27 1.35 1.41 1.43 1.42 1.42 1.40 1.41 1.41 1.33 1.24 1.18
1.26 1.28 1.34 1.32 1.22 1.17 1.26 1.20 1.08 1.19 1.23 1.31 1.36 1.40 1.40 1.40 1.41 1.43 1.44 1.44 1.41 1.38
1.29 1.35 1.31 1.30 1.24 1.12 1.20 1.18 1.14 1.17 1.24 1.30 1.35 1.35 1.36 1.41 1.41 1.41 1.43 1.47 1.49 1.53
1.33 1.37 1.30 1.27 1.23 1.10 1.09 1.22 1.21 1.14 1.17 1.25 1.29 1.34 1.37 1.40 1.40 1.42 1.43 1.43 1.49 1.59
1.34 1.33 1.33 1.30 1.25 1.11 1.00 1.14 1.20 1.21 1.21 1.18 1.28 1.36 1.39 1.41 1.39 1.36 1.40 1.45 1.51 1.59
1.40 1.36 1.39 1.38 1.27 1.19 1.10 1.02 1.10 1.21 1.26 1.26 1.29 1.39 1.41 1.39 1.37 1.33 1.40 1.48 1.61 1.72
1.44 1.42 1.44 1.38 1.29 1.30 1.20 1.10 1.06 1.18 1.25 1.26 1.29 1.32 1.34 1.37 1.36 1.34 1.40 1.52 1.78 1.84
1.46 1.47 1.41 1.42 1.45 1.42 1.39 1.28 1.21 1.18 1.23 1.25 1.27 1.32 1.34 1.32 1.34 1.31 1.42 1.63 1.79 1.81
1.52 1.52 1.53 1.51 1.57 1.57 1.51 1.47 1.39 1.25 1.28 1.28 1.29 1.33 1.34 1.36 1.40 1.41 1.62 1.71 1.66 1.75

GFSNIL_prec_pwat_033.txt.gz
Precipitable_Water
1.25 1.25 1.28 1.34 1.36 1.35 1.29 1.24 1.31 1.31 1.30 1.41 1.58 1.65 1.60 1.41 1.43 1.40 1.26 1.13 1.15 1.20
1.23 1.24 1.22 1.29 1.35 1.36 1.39 1.33 1.29 1.30 1.31 1.39 1.54 1.61 1.59 1.41 1.37 1.34 1.27 1.23 1.22 1.22
1.14 1.21 1.26 1.32 1.28 1.30 1.33 1.37 1.33 1.24 1.29 1.37 1.51 1.57 1.59 1.48 1.42 1.34 1.27 1.22 1.21 1.22
1.21 1.26 1.36 1.34 1.35 1.32 1.33 1.35 1.34 1.27 1.26 1.36 1.42 1.54 1.55 1.52 1.43 1.31 1.27 1.23 1.18 1.16
1.34 1.35 1.34 1.33 1.36 1.39 1.28 1.33 1.36 1.26 1.21 1.29 1.41 1.47 1.50 1.49 1.43 1.32 1.25 1.22 1.16 1.14
1.36 1.33 1.32 1.36 1.40 1.42 1.34 1.27 1.34 1.30 1.15 1.22 1.36 1.40 1.50 1.50 1.40 1.33 1.30 1.33 1.26 1.18
1.33 1.31 1.33 1.35 1.40 1.40 1.38 1.27 1.26 1.32 1.17 1.21 1.31 1.37 1.44 1.48 1.40 1.37 1.36 1.42 1.44 1.38
1.36 1.41 1.42 1.40 1.38 1.42 1.39 1.26 1.18 1.26 1.24 1.18 1.27 1.32 1.34 1.44 1.42 1.37 1.37 1.42 1.44 1.47
1.43 1.38 1.36 1.42 1.41 1.36 1.34 1.27 1.19 1.17 1.18 1.15 1.14 1.22 1.26 1.36 1.36 1.37 1.36 1.33 1.40 1.50
1.46 1.40 1.35 1.43 1.46 1.37 1.29 1.29 1.15 1.09 1.15 1.12 1.16 1.15 1.20 1.26 1.36 1.36 1.35 1.37 1.41 1.46
1.53 1.48 1.41 1.42 1.42 1.42 1.37 1.28 1.21 1.12 1.12 1.15 1.21 1.21 1.16 1.27 1.36 1.37 1.39 1.42 1.45 1.46
1.37 1.43 1.46 1.45 1.43 1.45 1.44 1.38 1.30 1.27 1.22 1.17 1.17 1.23 1.26 1.26 1.30 1.32 1.38 1.45 1.45 1.46
1.37 1.43 1.42 1.49 1.56 1.59 1.57 1.50 1.45 1.37 1.22 1.21 1.20 1.27 1.28 1.37 1.36 1.29 1.35 1.44 1.48 1.47
1.38 1.42 1.48 1.63 1.71 1.74 1.75 1.69 1.57 1.47 1.42 1.25 1.23 1.27 1.26 1.33 1.44 1.40 1.34 1.32 1.34 1.41